[[{"header":{"parameterUnit":"m.s-1","parameterCategory":1,"la1":30.2991,"la2":30.254,"lo1":-89.0895,"lo2":-89.0444,"dy":0.0017,"dx":0.0017,"nx":28,"ny":28,"refTime":"2023-09-23T03:00:00:Z","depth":0,"parameterNumber":2,"parameterNumberName":"U-component_of_WINDS"},"data":[0,0,0,0,0,0,0,0,0,0,0,0,0,0,0,0,0,0,0,0,0,0,0,0,0,0,0,0,0,0,0,0,0,0,0,0,0,0,0,0,0,0,0,0,0,0,0,0,0,0,0,0,0,0,0,0,0,0,-1.0569,-1.0569,0,-1.0575,-1.0575,-1.0575,-1.0539,-1.0538,-1.0537,-1.0536,-1.0544,-1.0546,-1.0547,0,0,0,0,0,0,0,0,0,0,0,0,0,-1.0528,-1.0529,-1.0569,-1.0569,-1.0569,-1.0575,-1.0575,-1.0575,-1.0539,-1.0538,-1.0537,-1.0535,-1.0544,-1.0545,-1.0547,0,0,0,0,0,0,0,0,0,0,0,0,0,-1.0541,-1.0529,-1.0569,-1.0551,-1.055,-1.0575,-1.0575,-1.0575,-1.0539,-1.0538,-1.0536,-1.0535,-1.0543,-1.0545,-1.0547,-1.0589,0,0,-1.0552,-1.0553,0,0,0,0,0,0,0,0,-1.0541,-1.0543,-1.0554,-1.0553,-1.0551,-1.0554,-1.0564,-1.058,-1.054,-1.0543,-1.0536,-1.0534,-1.0549,-1.055,-1.0555,-1.0589,-1.059,-1.0553,-1.0554,-1.0554,-1.0555,0,0,0,0,0,0,0,-1.054,-1.0542,-1.0571,-1.0554,-1.0552,-1.0544,-1.0545,-1.0567,-1.0555,-1.0543,-1.054,-1.0542,-1.0548,-1.0553,-1.0555,-1.059,-1.0553,-1.0554,-1.0555,-1.0556,-1.066,-1.0662,0,0,0,0,0,0,-1.0541,-1.0542,-1.0571,-1.0571,-1.0542,-1.0546,-1.0547,-1.0555,-1.0555,-1.0553,-1.0543,-1.054,-1.0551,-1.0553,-1.0555,-1.0605,-1.0554,-1.0556,-1.0557,-1.0658,-1.066,-1.0662,0,0,0,0,0,0,-1.054,-1.0544,-1.0571,-1.0556,-1.0559,-1.0549,-1.0558,-1.0556,-1.0561,-1.0554,-1.0552,-1.055,-1.055,-1.0553,-1.0581,-1.0605,-1.0557,-1.0559,-1.0656,-1.0659,-1.0661,-1.0704,0,0,0,0,0,0,-1.0539,-1.0544,-1.0559,-1.0556,-1.056,-1.0596,-1.056,-1.0557,-1.0564,-1.056,-1.0561,-1.0559,-1.0549,-1.0578,-1.0583,-1.0606,-1.056,-1.0654,-1.0657,-1.066,-1.0701,-1.0708,-1.0714,0,0,0,0,0,-1.0538,-1.0571,-1.056,-1.0564,-1.0578,-1.0597,-1.0599,-1.0586,-1.0566,-1.0582,-1.0578,-1.0559,-1.0601,-1.0582,-1.0586,-1.061,-1.0653,-1.0657,-1.066,-1.0698,-1.0707,-1.0714,0,0,0,0,0,0,-1.0578,-1.057,-1.0558,-1.0591,-1.0595,-1.0591,-1.061,-1.0595,-1.0605,-1.0601,-1.0585,-1.0585,-1.0617,-1.0616,-1.0595,-1.0652,-1.0624,-1.0629,-1.0651,-1.0659,-1.0666,-1.0665,-1.0561,0,0,0,0,0,-1.059,-1.0605,-1.0598,-1.0629,-1.0631,-1.0621,-1.0628,-1.0617,-1.0621,-1.0623,-1.062,-1.0625,-1.0639,-1.0649,-1.0662,-1.07,-1.07,-1.0719,-1.0726,-1.0732,-1.0736,-1.0758,-1.0766,-1.0675,-1.0675,-1.0675,0,0,-1.0616,-1.0614,-1.0625,-1.0637,-1.0638,-1.0655,-1.0622,-1.0641,-1.0654,-1.0626,-1.0652,-1.0651,-1.0655,-1.0689,-1.0704,-1.069,-1.0762,-1.0737,-1.0741,-1.0743,-1.0762,-1.0771,-1.0779,-1.0677,-1.0677,-1.0676,0,0,-1.0673,-1.0673,-1.0698,-1.07,-1.0703,-1.0695,-1.0702,-1.07,-1.0698,-1.0724,-1.0703,-1.0719,-1.0743,-1.0747,-1.0752,-1.0811,-1.0795,-1.0816,-1.0851,-1.0872,-1.0879,-1.0885,-1.0907,-1.0915,-1.082,-1.082,-1.082,0,-1.0706,-1.0729,-1.0713,-1.0734,-1.074,-1.0714,-1.074,-1.0744,-1.0751,-1.0756,-1.074,-1.077,-1.0771,-1.0806,-1.082,-1.0825,-1.0833,-1.0816,-1.0879,-1.0885,-1.0891,-1.0912,-1.092,-1.0823,-1.0822,-1.0822,-1.0822,0,-1.077,-1.0786,-1.0807,-1.0813,-1.0822,-1.0845,-1.0833,-1.0844,-1.0833,-1.0827,-1.0855,-1.0855,-1.0868,-1.0875,-1.0864,-1.0909,-1.09,-1.0882,-1.0854,-1.0903,-1.0922,-1.0929,-1.0826,-1.0825,-1.0825,-1.0824,0,0,-1.0852,-1.0849,-1.0857,-1.086,-1.0861,-1.0874,-1.0897,-1.0908,-1.0918,-1.0924,-1.0943,-1.0964,-1.0948,-1.0954,-1.0943,-1.0961,-1.1009,-1.0941,-1.0941,-1.0954,-1.1059,-1.1073,-1.1082,-1.0998,-1.0999,-1.1,-1.1058,0,-1.0907,-1.0945,-1.0931,-1.097,-1.0986,-1.0962,-1.0982,-1.0985,-1.0981,-1.0995,-1.099,-1.1006,-1.0982,-1.0986,-1.1003,-1.0999,-1.103,-1.0995,-1.1016,-1.1017,-1.1017,-1.1092,-1.1106,-1.1161,-1.1066,-1.1067,-1.1068,0,-1.0977,-1.0985,-1.1026,-1.1024,-1.1031,-1.1048,-1.1058,-1.1071,-1.1075,-1.1071,-1.1078,-1.1063,-1.1086,-1.1058,-1.1089,-1.1066,-1.1074,-1.1074,-1.1076,-1.1078,-1.1046,-1.1096,-1.1178,-1.1187,-1.1079,-1.1078,-1.1077,0,-1.1034,-1.1055,-1.1082,-1.1085,-1.1084,-1.1097,-1.1098,-1.11,-1.1108,-1.1117,-1.1122,-1.1133,-1.114,-1.115,-1.114,-1.1119,-1.1173,-1.1144,-1.1171,-1.1172,-1.1184,-1.1184,-1.1269,-1.1188,-1.1188,-1.1188,-1.1188,0,-1.1098,-1.1124,-1.1107,-1.1124,-1.1152,-1.1137,-1.1166,-1.1163,-1.1166,-1.1182,-1.1162,-1.1178,-1.1163,-1.1178,-1.117,-1.1199,-1.1202,-1.1199,-1.1197,-1.1202,-1.1202,-1.1207,-1.1203,-1.119,-1.119,-1.1189,-1.1189,0,-1.1167,-1.1156,-1.1184,-1.1181,-1.1181,-1.1202,-1.1199,-1.1215,-1.1209,-1.1231,-1.1235,-1.1226,-1.1243,-1.1233,-1.1251,-1.1245,-1.1282,-1.1274,-1.1281,-1.1279,-1.1307,-1.1305,-1.14,-1.1412,-1.1322,-1.1323,-1.1324,0,-1.1209,-1.1228,-1.1226,-1.1236,-1.1237,-1.1252,-1.126,-1.1246,-1.1255,-1.1261,-1.1276,-1.1291,-1.1302,-1.133,-1.1326,-1.1339,-1.1332,-1.1364,-1.1334,-1.1338,-1.1333,-1.1333,-1.1335,-1.137,-1.1372,-1.1372,-1.1373,0,-1.1285,-1.1278,-1.129,-1.13,-1.131,-1.1318,-1.1324,-1.1333,-1.1318,-1.133,-1.1346,-1.1355,-1.1372,-1.1388,-1.1399,-1.14,-1.1385,-1.1382,-1.139,-1.1395,-1.1398,-1.1397,-1.1298,-1.1381,-1.138,-1.1379,-1.1379,-1.1379,-1.1341,-1.1358,-1.1359,-1.1373,-1.1376,-1.1382,-1.1397,-1.1393,-1.1406,-1.1418,-1.1409,-1.1429,-1.1433,-1.1446,-1.1449,-1.1465,-1.1452,-1.1463,-1.1466,-1.1469,-1.1473,-1.1395,-1.1467,-1.1467,-1.1467,-1.1467,-1.1466,0,-1.1417,-1.1417,-1.1429,-1.1438,-1.1449,-1.1433,-1.1439,-1.145,-1.1467,-1.1471,-1.1482,-1.1502,-1.1516,-1.1514,-1.1527,-1.154,-1.1534,-1.1545,-1.1544,-1.1545,-1.1483,-1.1476,-1.155,-1.155,-1.155,-1.155,-1.155,-1.155,-1.1458,-1.1484,-1.1478,-1.1506,-1.1506,-1.1525,-1.153,-1.1536,-1.1539,-1.1561,-1.1573,-1.1571,-1.1572,-1.1586,-1.1599,-1.1598,-1.1604,-1.1618,-1.1614,-1.1557,-1.1549,-1.1541,-1.1534,-1.1619,-1.1619,-1.1674,-1.1675,-1.1675]},{"header":{"parameterUnit":"m.s-1","parameterCategory":1,"la1":30.2991,"la2":30.254,"lo1":-89.0895,"lo2":-89.0444,"dy":0.0017,"dx":0.0017,"nx":28,"ny":28,"refTime":"2023-09-23T03:00:00:Z","depth":0,"parameterNumber":3,"parameterNumberName":"V-component_of_WINDS"},"data":[0,0,0,0,0,0,0,0,0,0,0,0,0,0,0,0,0,0,0,0,0,0,0,0,0,0,0,0,0,0,0,0,0,0,0,0,0,0,0,0,0,0,0,0,0,0,0,0,0,0,0,0,0,0,0,0,0,0,4.2584,4.2584,0,4.2566,4.2566,4.2566,4.2509,4.2507,4.2506,4.2505,4.2488,4.2488,4.2489,0,0,0,0,0,0,0,0,0,0,0,0,0,4.2569,4.257,4.2584,4.2584,4.2583,4.2566,4.2566,4.2566,4.2509,4.2507,4.2506,4.2504,4.2487,4.2488,4.2489,0,0,0,0,0,0,0,0,0,0,0,0,0,4.2566,4.257,4.2584,4.2553,4.255,4.2566,4.2566,4.2566,4.2509,4.2507,4.2505,4.2503,4.2487,4.2488,4.2489,4.2534,0,0,4.2493,4.2493,0,0,0,0,0,0,0,0,4.2566,4.2567,4.2558,4.2555,4.2552,4.2538,4.2554,4.2555,4.251,4.2525,4.2505,4.2503,4.2506,4.2505,4.2506,4.2533,4.2533,4.2493,4.2493,4.2494,4.2494,0,0,0,0,0,0,0,4.2567,4.2567,4.2577,4.2558,4.2554,4.254,4.2538,4.2554,4.2526,4.2523,4.2519,4.2518,4.2504,4.2505,4.2505,4.2532,4.2493,4.2494,4.2494,4.2495,4.2595,4.2597,0,0,0,0,0,0,4.2571,4.2568,4.2577,4.2576,4.2554,4.2542,4.2539,4.2544,4.2526,4.2521,4.2519,4.2515,4.2504,4.2504,4.2505,4.2554,4.2494,4.2495,4.2495,4.2593,4.2595,4.2597,0,0,0,0,0,0,4.2571,4.2573,4.2578,4.2571,4.257,4.2544,4.255,4.2545,4.2546,4.2523,4.2518,4.2526,4.2503,4.2503,4.2527,4.2553,4.2495,4.2496,4.259,4.2593,4.2596,4.2656,0,0,0,0,0,0,4.2571,4.2573,4.2589,4.2572,4.2571,4.2601,4.2552,4.2546,4.2548,4.2542,4.2528,4.2523,4.2501,4.2526,4.2528,4.2554,4.2497,4.2588,4.2592,4.2595,4.2652,4.2661,4.2669,0,0,0,0,0,4.2571,4.2608,4.2591,4.2592,4.2591,4.2602,4.2602,4.2576,4.255,4.2567,4.2552,4.2524,4.2551,4.2529,4.2531,4.2557,4.2586,4.2591,4.2595,4.2648,4.2659,4.2668,0,0,0,0,0,0,4.2629,4.2605,4.2586,4.2618,4.2613,4.2593,4.2612,4.2589,4.2591,4.2585,4.2553,4.255,4.2578,4.2571,4.2546,4.2599,4.2564,4.2569,4.2603,4.2613,4.2622,4.2622,4.2498,0,0,0,0,0,4.2646,4.2657,4.2635,4.2666,4.2664,4.2639,4.2643,4.2623,4.2616,4.2614,4.2601,4.2596,4.2603,4.2608,4.2613,4.2651,4.2646,4.267,4.2679,4.2686,4.269,4.2708,4.2718,4.2612,4.2612,4.2612,0,0,4.2681,4.2669,4.2677,4.2677,4.2671,4.2682,4.2637,4.2652,4.266,4.2616,4.2637,4.2628,4.262,4.2651,4.2664,4.2645,4.2719,4.2692,4.2698,4.2698,4.2714,4.2724,4.2733,4.2615,4.2615,4.2614,0,0,4.2749,4.2742,4.2766,4.276,4.2751,4.2734,4.274,4.2724,4.2715,4.2736,4.2703,4.2713,4.2726,4.2722,4.2721,4.2788,4.2762,4.2791,4.2835,4.2853,4.2861,4.2868,4.289,4.2899,4.2796,4.2796,4.2796,0,4.2793,4.2809,4.2781,4.2797,4.2798,4.2759,4.2782,4.2779,4.2772,4.2773,4.2753,4.2768,4.276,4.2788,4.2805,4.2806,4.2811,4.2792,4.2862,4.2869,4.2875,4.2896,4.2905,4.28,4.2799,4.2799,4.2799,0,4.2863,4.2875,4.2895,4.2889,4.2892,4.2912,4.2887,4.2894,4.2874,4.286,4.2881,4.2871,4.2872,4.2878,4.286,4.2904,4.2892,4.2868,4.2831,4.2889,4.2908,4.2916,4.2805,4.2803,4.2802,4.2802,0,0,4.2966,4.2944,4.2952,4.2948,4.2935,4.2944,4.2963,4.2964,4.297,4.2967,4.2981,4.2993,4.297,4.297,4.295,4.2967,4.3018,4.294,4.2939,4.2953,4.3065,4.3082,4.3091,4.3002,4.3003,4.3005,4.3065,0,4.3029,4.3058,4.3034,4.3068,4.3078,4.3041,4.3057,4.3051,4.3038,4.3045,4.3032,4.304,4.301,4.3009,4.3023,4.3009,4.304,4.3005,4.3014,4.3014,4.3014,4.3102,4.312,4.3177,4.3072,4.3073,4.3074,0,4.3106,4.3106,4.3141,4.3125,4.3128,4.3143,4.3142,4.3149,4.3142,4.3131,4.3131,4.3107,4.3124,4.309,4.3112,4.3089,4.3092,4.3085,4.3087,4.3085,4.3046,4.31,4.3194,4.3202,4.3086,4.3085,4.3084,0,4.3175,4.3184,4.3205,4.3204,4.3187,4.3198,4.3191,4.3182,4.3184,4.3184,4.3185,4.3187,4.3188,4.319,4.3167,4.3145,4.3192,4.3156,4.3183,4.3184,4.3193,4.3192,4.3287,4.3199,4.3199,4.3198,4.3198,0,4.3247,4.3269,4.3236,4.3249,4.3273,4.3245,4.3269,4.3259,4.3251,4.3262,4.3231,4.3242,4.3212,4.322,4.3203,4.3223,4.3224,4.3216,4.3211,4.3217,4.3218,4.3217,4.3211,4.3201,4.32,4.32,4.3199,0,4.3327,4.3306,4.3327,4.3309,4.3305,4.3323,4.3308,4.3319,4.3305,4.3318,4.332,4.3298,4.3305,4.3283,4.3287,4.3276,4.3305,4.3294,4.3307,4.3303,4.333,4.3327,4.3425,4.3436,4.3343,4.3344,4.3345,0,4.3373,4.3389,4.3373,4.3377,4.3372,4.338,4.3382,4.3356,4.3359,4.3352,4.3364,4.3369,4.337,4.3384,4.3368,4.3371,4.3359,4.3393,4.3359,4.3365,4.3357,4.3355,4.3356,4.34,4.3401,4.3402,4.3402,0,4.3456,4.3445,4.3448,4.3449,4.3452,4.3451,4.3448,4.3454,4.3426,4.3431,4.3437,4.3439,4.3443,4.3448,4.3447,4.344,4.3417,4.3414,4.342,4.3425,4.3431,4.3426,4.3324,4.3411,4.341,4.3409,4.3409,4.3409,4.3519,4.3531,4.3521,4.3526,4.3521,4.3519,4.3528,4.3515,4.352,4.352,4.3505,4.3515,4.3507,4.3504,4.35,4.3507,4.3491,4.35,4.3502,4.3504,4.3508,4.3432,4.3507,4.3507,4.3506,4.3506,4.3506,0,4.3598,4.359,4.3595,4.3592,4.3596,4.3573,4.3569,4.3574,4.3582,4.3577,4.358,4.3587,4.3591,4.3576,4.3579,4.3587,4.3576,4.3588,4.3586,4.3585,4.3523,4.3516,4.3597,4.3597,4.3597,4.3597,4.3597,4.3597,4.364,4.3658,4.3646,4.3662,4.3654,4.3663,4.3662,4.366,4.3655,4.3664,4.3668,4.3658,4.3648,4.365,4.3653,4.3648,4.3649,4.3665,4.3657,4.3598,4.3589,4.3581,4.3574,4.3666,4.3666,4.3718,4.3718,4.3719]}]]